Regional Weather Roundup
Issued by NWS

Home | Current Version | Previous Version | Text Only | Print | Product List | Glossary Off
Versions: 1 2 3 4 5 6 7 8 9 10 11 12 13 14 15 16 17 18 19 20 21 22 23 24 25 26 27 28 29 30 31 32 33 34 35 36 37 38 39 40 41 42 43 44 45 46 47 48 49 50

000
ASUS43 KMPX 192210
RWRMN
WEATHER ROUNDUP FOR MINNESOTA
NATIONAL WEATHER SERVICE TWIN CITIES/CHANHASSEN MN
400 PM CST SUN NOV 19 2017


NOTE: "FAIR" INDICATES FEW OR NO CLOUDS BELOW 12,000 FEET WITH NO
SIGNIFICANT WEATHER AND/OR OBSTRUCTIONS TO VISIBILITY. N/A MEANS
CURRENT SKY AND/OR WEATHER CONDITIONS ARE NOT AVAILABLE.

MNZ060>063-068>070-192300-
   Twin Cities Metro

CITY           SKY/WX    TMP DP  RH WIND       PRES   REMARKS
TWIN CITIES    PTCLDY    41  24  51 SW6       29.90F
ST PAUL        CLEAR     40  22  48 S3        29.91F
CRYSTAL        CLEAR     39  22  50 S6        29.88F
BLAINE         PTCLDY    39  25  56 S6        29.88F
LAKEVILLE      CLEAR     39  25  56 SW3       29.90F
EDEN PRAIRIE   CLEAR     42  24  49 S6        29.88F
SOUTH ST PAUL  CLEAR     40  22  49 SW7       29.90F
LAKE ELMO      FAIR      37  23  56 SW3       29.90F
$$
MNZ001>005-007-008-013>017-022>024-027-028-192300-
   Northwest Minnesota

CITY           SKY/WX    TMP DP  RH WIND       PRES   REMARKS
BEMIDJI        CLEAR     32  20  59 CALM      29.78S
HALLOCK        CLEAR     25  19  80 CALM      29.80S
ROSEAU         CLEAR     27  19  74 SE3       29.79F
WARROAD        CLEAR     25  16  68 CALM      29.80S
THIEF RVR FALL CLEAR     31  25  78 W3        29.79F
CROOKSTON      CLEAR     34  27  75 NW8       29.81R WCI  27
FOSSTON        CLEAR     32  23  69 SW3       29.79S
DETROIT LAKES  CLEAR     37  27  65 CALM      29.81S
MOORHEAD       CLEAR     43  25  49 CALM      29.80S
PARK RAPIDS    CLEAR     36  23  59 SW7       29.79S
MAHNOMEN       FAIR      36  25  64 SW8       29.78F
$$
MNZ006-009>011-018-025>026-192300-
   North Central Minnesota

CITY           SKY/WX    TMP DP  RH WIND       PRES   REMARKS
BAUDETTE       CLEAR     21  12  68 S5        29.80S WCI  15
FLAG ISLAND    CLOUDY    21  16  79 S6        29.78F WCI  14
INTL FALLS     CLOUDY    21  12  68 CALM      29.81F
WASKISH        PTCLDY    27  16  63 SE5       29.81S WCI  21
BIG FORK       CLOUDY    25  14  63 CALM      29.81S
LONGVILLE      CLEAR     30  18  59 SE6       29.81S WCI  24
GRAND RAPIDS   CLEAR     28  18  66 S5        29.83F WCI  23
CRANE LAKE     CLOUDY    18  10  73 CALM      29.84S
ORR            CLOUDY    18  12  79 CALM      29.80S
COOK           CLOUDY    19  16  86 SW3       29.83R
WALKER         FAIR      29  20  69 NE5       29.79S WCI  24
$$
MNZ012-019>021-037-192300-
   Northeast Minnesota

CITY           SKY/WX    TMP DP  RH WIND       PRES   REMARKS
DULUTH         MOCLDY    23  15  71 SW7       29.82F WCI  15
ELY            CLOUDY    19  10  68 W6        29.81S WCI  11
HIBBING        CLOUDY    22  13  68 CALM      29.82F
EVELETH        CLOUDY    19  14  79 SW5       29.83F WCI  13
DULUTH HARBOR  CLOUDY    28  18  64 SW7       29.88F WCI  21
TWO HARBORS    CLOUDY    27  18  69 SW3       29.83F
SILVER BAY     CLOUDY    23  16  74 CALM      29.82F
GRAND MARAIS     N/A     25  11  55 VRB5      29.85F WCI  19
G MARAIS ARPRT CLOUDY    16   7  67 CALM      29.77S
$$
MNZ029>031-032-039>041-046>048-054>057-064-192300-
   West Central Minnesota

CITY           SKY/WX    TMP DP  RH WIND       PRES   REMARKS
FERGUS FALLS   CLEAR     43  27  52 W8        29.82F
WHEATON        CLEAR     45  21  39 SW7       29.84R
MORRIS         CLOUDY    46  25  42 W12       29.82S
ALEXANDRIA     CLEAR     42  28  57 SW8       29.82F
ELBOW LAKE     FAIR      42  28  56 SW7       29.81S
WADENA         CLEAR     37  25  60 CALM      29.80F
GLENWOOD       CLEAR     43  28  56 SW6       29.83S
APPLETON         N/A     48  21  34 SW13      29.83S
BENSON         CLEAR     48  23  37 W12       29.85S
ORTONVILLE     CLEAR     48  23  37 MISG      29.84R
MADISON        CLEAR     52  23  32 SW10      29.85S
WILLMAR        FAIR      45  30  57 SW7       29.86F
$$
MNZ033>034-036-042>043-049>051-058-059-192300-
   Central Minnesota

CITY           SKY/WX    TMP DP  RH WIND       PRES   REMARKS
ST CLOUD       CLEAR     39  26  59 SW7       29.85F
SAUK CENTRE    FAIR      40  29  64 S6        29.83F
PAYNESVILLE    CLEAR     42  30  64 S5        29.85F
AITKIN         CLEAR     30  19  64 S3        29.81F
PINE RIVER     CLEAR     36  21  55 S5        29.85R
BRAINERD       CLEAR     36  21  54 S9        29.83F
STAPLES        CLEAR     37  21  52 SW5       29.82S
LONG PRAIRIE   FAIR      37  27  65 S7        29.83S
LITTLE FALLS   CLEAR     37  19  48 SW3       29.84F
LITCHFIELD     CLEAR     45  28  53 CALM      29.86F
BUFFALO        CLEAR     41  25  51 S3        29.88F
MAPLE LAKE     CLEAR     42  28  58 S3        29.87F
HUTCHINSON     CLEAR     46  29  52 CALM      29.87F
$$
MNZ037-044-045-052-053-192300-
   East Central Minnesota

CITY           SKY/WX    TMP DP  RH WIND       PRES   REMARKS
PRINCETON      CLEAR     37  25  60 S5        29.86F
MORA           CLEAR     34  21  60 SW6       29.87F WCI  29
CAMBRIDGE      CLEAR     39  25  56 S5        29.87F
RUSH CITY      CLEAR     33  19  56 S6        29.88F WCI  28
MOOSE LAKE     CLEAR     32  18  55 CALM      29.84F
HINCKLEY       FAIR      32  21  64 S6        29.86F WCI  26
CLOQUET        CLOUDY    27  14  59 S3        29.83F
MCGREGOR       CLEAR     32  21  64 SW5       29.84F WCI  27
$$
MNZ071>073-080-081-089-090-097-098-192300-
   Southwest Minnesota

CITY           SKY/WX    TMP DP  RH WIND       PRES   REMARKS
MONTEVIDEO     CLEAR     50  25  37 W8        29.85S
GRANITE FALLS  CLEAR     51  25  37 SW10      29.87F
CANBY          CLOUDY    48  24  39 SW7       29.87S
MARSHALL       CLEAR     47  23  38 SW13      29.87F
REDWOOD FALLS  CLEAR     50  23  34 SW12      29.87F
OLIVIA         CLEAR     50  28  43 SW12      29.85F
PIPESTONE      CLOUDY    45  25  45 SW7       29.88F
WINDOM         CLEAR     46  25  42 SW10      29.90F
WORTHINGTON    CLEAR     46  23  40 SW12      29.91F
JACKSON        CLEAR     46  23  39 SW10G16   29.92F
SLAYTON        CLOUDY    46  25  44 SW9       29.90S
$$
MNZ065>067-074>077-082>085-091>093-192300-
   South Central Minnesota

CITY           SKY/WX    TMP DP  RH WIND       PRES   REMARKS
MANKATO        CLOUDY    46  25  43 SW9       29.90F
NEW ULM        CLEAR     48  23  37 CALM      29.89S
ST JAMES       CLEAR     48  25  40 SW13      29.92S
FAIRMONT       CLEAR     46  26  45 SW8       29.93F
GLENCOE        CLEAR     46  28  50 S5        29.87F
FARIBAULT      CLEAR     43  27  52 S7        29.92S
OWATONNA       CLEAR     41  28  60 S9        29.92F
WASECA         CLEAR     41  28  60 S9        29.93S
ALBERT LEA     CLEAR     43  25  49 S6        29.94S
$$
MNZ078>079-086>088-094>096-192300-
   Southeast Minnesota

CITY           SKY/WX    TMP DP  RH WIND       PRES   REMARKS
ROCHESTER      CLEAR     36  26  67 SW13      29.94F
RED WING       CLEAR     39  19  45 SW5       29.91F
STANTON        CLEAR     40  26  57 SW6       29.90F
DODGE CENTER   CLEAR     37  27  65 SW10      29.93S
WINONA         CLEAR     37  21  52 SW6       29.97S
AUSTIN         CLEAR     39  27  60 SW8       29.94F
PRESTON        CLEAR     35  23  61 SW10      29.96S WCI  27
$$
ABBREVIATIONS USED IN REMARKS
   TC - TEMPERATURES IN CELSIUS
  WCI - WIND CHILL INDEX
   HX - HEAT INDEX
  VSB - VISIBILITY
$$



USA.gov is the U.S. government's official web portal to all federal, state and local government web resources and services.